Location: Chalouze
(46.1467°N, 3.0227°E)
Time: 09:54:56
(UTC+00:00)

Daily predictions for brighter satellites

Satellite Brightness Start Highest point End
(mag) Time Altitude Azimuth Time Altitude Azimuth Time Altitude Azimuth
Cosmos 1980 3.7 18:31:32 10° SSW 18:37:12 75° ESE 18:42:53 10° NNE
S3M 4.1 18:33:29 10° S 18:39:42 58° E 18:45:57 10° NNE
Cosmos 2084 4.1 18:36:59 10° SW 18:41:26 65° NW 18:45:54 10° NE
Ariane Rocket 3.3 18:36:59 10° SE 18:41:52 50° ENE 18:46:46 10° N
STARLINK-1224 4.0 18:38:07 10° SSW 18:41:55 41° SE 18:45:43 10° ENE
YAOGAN 1 3.4 18:37:45 10° S 18:42:01 56° W 18:46:17 10° NNW
BREEZE-M DEB (TANK) 4.0 18:27:12 10° WNW 18:43:05 69° SW 18:46:46 10° SE
Cosmos 1386 Rocket 4.5 18:37:42 10° N 18:43:43 60° ENE 18:49:37 10° SSE
Cosmos 1455 Rocket 3.5 18:40:48 10° SSE 18:44:49 39° E 18:48:53 10° NNE
STARLINK-1225 3.9 18:42:45 10° SSW 18:46:36 44° SE 18:50:27 10° ENE
Cosmos 1110 Rocket 4.1 18:42:15 10° NNW 18:47:29 64° ENE 18:52:39 10° SSE
STARLINK-1203 3.8 18:44:42 10° SW 18:48:31 49° SE 18:52:20 10° ENE
Cosmos 332 Rocket 3.9 18:43:48 10° NNW 18:48:45 89° WSW 18:53:40 10° SSE
STARLINK-1072 3.8 18:46:20 10° NW 18:50:18 60° NNE 18:54:14 10° ESE
SL-16 R/B 2.8 18:45:46 10° SSE 18:50:48 34° ESE 18:55:52 10° NE
Cosmos 2333 Rocket 3.9 18:45:56 10° WSW 18:51:12 38° NW 18:56:29 10° NNE
STARLINK-1230 3.8 18:47:19 10° SW 18:51:13 48° SE 18:55:07 10° ENE
Cosmos 1892 Rocket 3.6 18:46:53 10° N 18:51:23 69° E 18:55:50 10° SSE
USA 186 2.5 18:51:02 10° SE 18:54:15 38° ENE 18:57:26 10° N
STARLINK-1234 2.8 18:51:31 10° WSW 18:54:31 79° NNW 18:57:31 10° ENE
CSL-04 Rocket 4.4 18:49:31 10° S 18:54:45 58° WSW 18:59:59 10° NNW
STARLINK-1096 3.7 18:50:47 10° WNW 18:54:46 64° NNE 18:58:31 11° ESE
Cosmos 1953 4.3 18:53:54 10° E 18:55:04 11° E 18:56:16 10° ENE
ARGOS Delta rocket 4.1 18:50:15 10° SSE 18:55:15 64° ENE 19:00:34 10° N
Meteor 2-16 Rocket 4.5 18:49:18 10° N 18:55:30 87° E 19:01:40 10° S
Cosmos 1626 2.8 18:52:27 10° N 18:55:52 33° ENE 18:59:15 10° SE
STARLINK-1243 3.7 18:51:58 10° SW 18:55:54 52° SE 18:59:49 10° ENE
NOSS 2-1 (E) 4.0 18:53:57 10° WSW 18:57:15 49° NW 19:00:56 10° NNE
STARLINK-1079 3.6 18:55:15 10° WNW 18:59:15 68° NNE 19:02:49 13° ESE
Okean 1-7 Rocket 3.5 18:54:53 10° N 18:59:18 72° E 19:03:40 10° SSE
STARLINK-1236 3.7 18:56:35 10° SW 19:00:33 57° SE 19:04:30 10° ENE
ATLAS 2AS CENTAUR R/B 4.4 18:57:09 10° NW 19:03:19 24° NNE 19:09:12 10° ENE
STARLINK-1116 3.6 18:59:43 10° WNW 19:03:44 72° NNE 19:07:08 14° ESE
SJ-11-01 4.3 19:00:25 10° SSE 19:05:07 88° ENE 19:09:52 10° NNW
H-2A R/B 2.1 19:00:51 10° SSE 19:06:08 68° ENE 19:11:18 10° N
STARLINK-1118 3.9 19:07:50 10° W 19:09:45 25° SW 19:11:31 11° SSE
STARLINK-1269 3.5 19:05:56 10° SW 19:09:56 66° SE 19:13:57 10° ENE
ERBS 4.1 19:08:55 10° W 19:11:59 31° NNW 19:15:03 10° NE
Cosmos 1544 Rocket 3.6 19:07:54 10° S 19:12:12 57° E 19:16:33 10° NNE
STARLINK-1094 3.5 19:08:42 10° WNW 19:12:43 81° NNE 19:15:46 17° ESE
Cosmos 1745 Rocket 4.2 19:07:06 10° NNW 19:13:26 76° W 19:19:39 10° S
STARLINK-1200 3.5 19:10:36 10° SW 19:14:37 71° SE 19:18:39 10° ENE
Cosmos 2297 3.7 19:09:33 10° NNW 19:15:13 68° ENE 19:20:53 10° SE
USA 234 3.4 19:09:36 10° ENE 19:16:00 54° SE 19:22:22 10° SSW
CZ-2C R/B 4.3 19:11:46 10° NNE 19:16:11 37° E 19:20:31 10° SSE
STARLINK-1117 3.5 19:13:13 10° WNW 19:17:15 86° NNE 19:20:06 18° ESE
Meteor 2-5 Rocket 4.3 19:13:12 10° NNW 19:18:48 62° W 19:24:16 10° S
STARLINK-1192 3.5 19:15:13 10° SW 19:19:15 77° SE 19:23:19 10° ENE
Cosmos 1805 4.3 19:17:04 10° SSW 19:20:51 49° WNW 19:24:41 10° N
Cosmos 2237 Rocket 2.9 19:15:26 10° SW 19:20:57 57° WNW 19:26:31 10° NNE
ADEOS Rocket 4.2 19:14:24 10° N 19:20:59 49° WNW 19:26:55 10° SW
STARLINK-1078 3.5 19:17:42 10° WNW 19:21:44 89° SW 19:24:26 20° ESE
STARLINK-1106 4.5 19:19:57 10° NW 19:23:53 40° NNE 19:26:39 17° E
STARLINK-1244 3.5 19:20:01 10° SW 19:24:03 82° SSE 19:28:01 11° ENE
STARLINK-1201 3.4 19:21:13 10° WSW 19:24:28 63° NNW 19:27:30 11° NE
Cosmos 1302 Rocket 4.0 19:19:48 10° NNW 19:25:03 65° ENE 19:29:43 13° SSE
STARLINK-1108 3.5 19:22:14 10° WNW 19:26:16 84° SSW 19:28:47 22° SE
Cosmos 2278 Rocket 4.0 19:22:14 10° NW 19:27:12 32° WSW 19:32:08 10° SSW
CZ-2C R/B 3.3 19:23:38 10° NNE 19:28:11 30° E 19:32:38 10° SSE
Cosmos 1269 Rocket 4.0 19:22:56 10° SSW 19:28:13 83° ESE 19:33:34 10° NNE
STARLINK-1138 3.5 19:24:41 10° WSW 19:28:44 88° SSE 19:32:32 12° ENE
STARLINK-1112 4.4 19:24:57 10° NW 19:28:56 42° NNE 19:31:27 20° E
STARLINK-1209 3.9 19:27:05 10° W 19:29:52 40° NNW 19:32:14 13° NE
STARLINK-1066 3.6 19:27:35 10° WNW 19:30:38 47° SW 19:32:18 22° SSE
STARLINK-1071 3.6 19:26:45 10° WNW 19:30:47 79° SSW 19:33:08 24° SE
STARLINK-1228 3.9 19:28:06 10° W 19:30:50 40° NNW 19:33:08 13° NE
STARLINK-1081 3.6 19:28:02 10° WNW 19:31:04 46° SW 19:32:41 23° SSE
STARLINK-1070 3.6 19:28:30 10° WNW 19:31:30 45° SW 19:33:06 23° SSE
STARLINK-1124 3.6 19:27:39 10° WNW 19:31:48 77° SSW 19:34:14 24° SE
STARLINK-1069 3.6 19:28:54 10° WNW 19:31:57 45° SW 19:33:34 23° SSE
STARLINK-1085 3.7 19:29:21 10° WNW 19:32:24 45° SW 19:34:00 23° SSE
STARLINK-1086 3.7 19:29:52 10° WNW 19:32:51 44° SW 19:34:25 23° SSE
STARLINK-1095 3.7 19:30:18 10° WNW 19:33:18 44° SW 19:34:50 23° SSE
STARLINK-1143 3.5 19:29:28 10° WSW 19:33:31 87° NW 19:37:08 13° ENE
STARLINK-1077 3.7 19:30:45 10° WNW 19:33:44 43° SW 19:35:16 23° SSE
STARLINK-1128 4.4 19:29:58 10° NW 19:33:57 43° NNE 19:36:15 22° E
Meteor 1-24 Rocket 4.2 19:28:41 10° NNW 19:34:09 62° W 19:39:25 10° S
STARLINK-1075 3.7 19:31:13 10° WNW 19:34:12 43° SW 19:35:42 23° SSE
ARGOS 3.2 19:28:50 10° SSE 19:34:15 84° WSW 19:39:41 10° NNW
STARLINK-1093 3.7 19:31:38 10° WNW 19:34:39 43° SW 19:36:10 23° SSE
SL-8 R/B 3.9 19:29:58 10° W 19:34:44 65° N 19:38:02 20° ENE
STARLINK-1074 3.8 19:32:05 10° WNW 19:35:05 42° SW 19:36:36 24° SSE
Cosmos 2251 Rocket 4.3 19:30:42 10° SSE 19:35:14 29° E 19:39:48 10° NE
STARLINK-1110 3.6 19:31:16 10° WNW 19:35:18 73° SW 19:37:29 26° SE
STARLINK-1087 3.8 19:32:35 10° WNW 19:35:33 42° SW 19:37:00 24° SSE
STARLINK-1088 3.8 19:33:01 10° WNW 19:36:00 41° SW 19:37:26 24° SSE
STARLINK-1115 3.8 19:33:26 10° WNW 19:36:27 41° SW 19:37:55 24° SSE
STARLINK-1076 3.8 19:33:53 10° WNW 19:36:53 41° SW 19:38:20 24° SSE
STARLINK-1092 3.8 19:34:21 10° WNW 19:37:21 40° SW 19:38:47 24° SSE
STARLINK-1080 3.8 19:34:50 10° WNW 19:37:48 40° SW 19:39:10 24° SSE
SL-24 R/B 4.2 19:33:34 10° NNE 19:38:07 52° E 19:42:05 10° S
STARLINK-1090 3.9 19:35:17 10° WNW 19:38:14 39° SW 19:39:36 24° SSE
MOS 1 4.5 19:32:55 10° S 19:38:33 74° WSW 19:44:14 10° NNW
STARLINK-1089 3.9 19:35:45 10° WNW 19:38:41 39° SW 19:40:02 24° SSE
STARLINK-1113 4.3 19:34:56 10° NW 19:38:57 45° NNE 19:41:02 24° E
STARLINK-1107 3.9 19:36:12 10° WNW 19:39:08 39° SW 19:40:28 24° SSE
Cosmos 1470 2.6 19:37:13 10° S 19:41:03 73° E 19:44:57 10° NNE
STARLINK-1119 4.2 19:39:54 10° NW 19:43:56 47° NNE 19:45:48 27° E
STARLINK-1241 3.6 19:39:57 10° WSW 19:43:58 76° NNW 19:47:06 16° NE
STARLINK-1233 3.9 19:41:16 10° W 19:44:18 44° NNW 19:46:21 18° NE
STARLINK-1122 3.8 19:40:27 10° WNW 19:44:27 63° SW 19:46:17 30° SE
STARLINK-1212 3.9 19:41:43 10° W 19:44:45 43° NNW 19:46:46 18° NE
STARLINK-1105 4.0 19:42:10 10° W 19:45:11 43° NNW 19:47:13 18° NE
Cosmos 2315 Rocket 4.0 19:38:57 10° S 19:45:15 87° E 19:51:39 10° N
SL-08 RB Rocket 3.7 19:40:54 10° SSE 19:45:24 86° WSW 19:50:00 10° NNW
STARLINK-1206 4.0 19:42:40 10° W 19:45:40 43° NNW 19:47:38 18° NE
STARLINK-1247 4.0 19:43:06 10° W 19:46:06 42° NNW 19:48:03 19° NE
SJ-6B 3.2 19:42:31 10° S 19:46:32 66° WSW 19:50:39 10° NNW
STARLINK-1227 4.0 19:43:31 10° W 19:46:32 42° NNW 19:48:30 19° NE
STARLINK-1218 4.0 19:44:01 10° W 19:47:00 42° NNW 19:48:55 19° NE
MetOp-A 4.1 19:42:29 15° SSE 19:47:01 73° ENE 19:52:23 10° N
ISS -2.7 19:43:52 10° WNW 19:47:02 38° NNE 19:48:11 28° ENE
Resurs 1-3 3.6 19:44:44 23° SSE 19:47:19 63° ENE 19:51:41 10° N
STARLINK-1226 4.0 19:44:29 10° W 19:47:29 42° NNW 19:49:23 19° NE
STARLINK-1254 4.0 19:44:53 10° W 19:47:53 42° NNW 19:49:48 19° NE
STARLINK-1215 4.0 19:45:24 10° W 19:48:23 41° NNW 19:50:13 19° NE
STARLINK-1239 3.7 19:44:33 10° WSW 19:48:33 71° NNW 19:51:30 18° NE
STARLINK-1231 4.0 19:45:50 10° W 19:48:48 41° NNW 19:50:39 19° NE
STARLINK-1114 4.1 19:44:54 10° NW 19:48:57 50° NNE 19:50:36 31° E
Cosmos 1758 3.2 19:44:52 10° S 19:48:58 82° E 19:53:04 10° N
STARLINK-1126 3.9 19:45:05 10° WNW 19:49:04 59° SW 19:50:44 31° SSE
STARLINK-1232 4.1 19:46:45 10° W 19:49:43 40° NNW 19:51:31 20° NE
STARLINK-1217 4.1 19:47:13 10° W 19:50:11 40° NNW 19:51:58 20° NE
STARLINK-1208 4.1 19:47:38 10° W 19:50:37 40° NNW 19:52:25 20° NE
STARLINK-1229 4.1 19:48:06 10° W 19:51:04 40° NNW 19:52:49 20° NE
STARLINK-1271 4.1 19:48:34 10° W 19:51:32 40° NNW 19:53:16 20° NE
BREEZE-M DEB (TANK) 4.0 19:44:49 10° WNW 19:51:49 58° N 19:53:10 32° ENE
STARLINK-1270 4.1 19:49:02 10° W 19:52:00 39° NNW 19:53:42 21° NE
STARLINK-1154 4.1 19:49:28 10° W 19:52:26 39° NNW 19:54:07 21° NE
IRIDIUM 104 4.3 19:47:40 10° N 19:52:52 63° E 19:56:26 20° SSE
CZ-2C R/B 3.7 19:48:01 10° S 19:52:59 53° W 19:57:46 10° NNW
STARLINK-1240 3.8 19:49:10 10° WSW 19:53:10 67° NNW 19:55:56 19° NE
STARLINK-1197 4.1 19:50:23 10° W 19:53:21 39° NNW 19:54:59 21° NE
STARLINK-1082 4.0 19:49:40 10° WNW 19:53:37 54° SW 19:55:08 33° SSE
STARLINK-1189 4.1 19:50:51 10° W 19:53:48 39° NNW 19:55:26 21° NE
STARLINK-1130 (DARKSAT) 4.0 19:49:52 10° NW 19:53:56 52° NNE 19:55:22 34° E
STARLINK-1187 4.3 19:51:44 10° W 19:54:41 36° NNW 19:56:20 20° NE
STARLINK-1188 4.2 19:51:44 10° W 19:54:42 38° NNW 19:56:17 22° NE
Resurs 01 Rocket 1.8 19:53:05 34° SE 19:54:42 53° ENE 19:59:00 10° N
STARLINK-1198 4.2 19:51:59 10° W 19:54:56 38° NNW 19:56:31 22° NE
STARLINK-1235 4.4 19:52:29 10° W 19:55:24 34° NNW 19:57:05 20° NE
Cosmos 2369 Rocket 2.6 19:50:04 10° NNW 19:55:34 47° ENE 19:57:50 31° ESE
Abrixas rocket 4.0 19:53:08 10° SSW 19:54:13 18° SSW 19:54:13 18° SSW
STARLINK-1199 4.2 19:53:42 10° W 19:56:40 38° NNW 19:58:12 22° NE
STARLINK-1191 4.2 19:54:10 10° W 19:57:07 37° NNW 19:58:39 22° NE
STARLINK-1210 4.2 19:54:36 10° W 19:57:34 37° NNW 19:59:04 22° NE
STARLINK-1216 3.9 19:53:48 10° WSW 19:57:47 63° NNW 20:00:23 21° NE
STARLINK-1221 4.2 19:55:04 10° W 19:58:02 37° NNW 19:59:32 22° NNE
STARLINK-1100 4.1 19:54:15 10° WNW 19:58:10 51° SW 19:59:31 34° SSE
STARLINK-1219 4.3 19:55:32 10° W 19:58:29 37° NNW 19:59:57 23° NNE
STARLINK-1222 4.3 19:55:58 10° W 19:58:55 37° NNW 20:00:23 23° NNE
STARLINK-1084 4.0 19:54:50 10° NW 19:58:56 55° NNE 20:00:09 39° ENE
STARLINK-1211 4.3 19:56:25 10° W 19:59:23 36° NNW 20:00:48 23° NNE
STARLINK-1214 4.3 19:56:54 10° W 19:59:50 36° NNW 20:01:15 23° NNE
STARLINK-1245 4.3 19:57:23 10° W 20:00:19 36° NNW 20:01:40 23° NNE
STARLINK-1238 4.3 19:57:49 10° W 20:00:45 36° NNW 20:02:08 23° NNE
Meteor 2-15 Rocket 4.3 19:55:13 10° S 20:01:17 83° E 20:07:23 10° N
STARLINK-1205 4.3 19:58:46 10° W 20:01:41 35° NNW 20:02:58 24° NNE
IRIDIUM 114 4.2 19:56:48 10° N 20:02:02 76° E 20:05:35 21° S
STARLINK-1204 4.3 19:59:12 10° W 20:02:07 35° NNW 20:03:23 24° NNE
STARLINK-1237 4.0 19:58:29 10° WSW 20:02:28 60° NNW 20:04:52 22° NE
STARLINK-1083 4.2 19:58:52 10° WNW 20:02:46 47° SW 20:03:57 35° S
STARLINK-1098 3.9 19:59:48 10° NW 20:03:54 58° NNE 20:04:55 44° ENE
SPOT 3 Rocket 3.7 20:00:43 14° S 20:05:14 72° WSW 20:10:28 10° NNW
Cosmos 1726 3.0 20:06:30 35° NE 20:06:30 35° NE 20:09:07 10° NNE
STARLINK-1202 4.1 20:03:08 10° WSW 20:07:06 57° NNW 20:09:18 24° NE
STARLINK-1125 4.3 20:03:31 10° WNW 20:07:22 43° SW 20:08:23 35° S
Nadezhda 1 Rocket 4.4 20:06:17 32° SE 20:08:24 42° E 20:14:21 10° NNE
Meteor 1-21 Rocket 4.1 20:02:49 10° N 20:08:26 82° ENE 20:11:31 27° SSE
STARLINK-1123 3.8 20:04:48 10° NW 20:08:55 62° NNE 20:09:44 50° ENE
Cosmos 2228 4.1 20:11:03 28° NE 20:11:03 28° NE 20:13:41 10° NNE
IRIDIUM 103 4.3 20:05:58 10° N 20:11:14 89° WSW 20:14:44 21° S
STARLINK-1109 4.4 20:07:51 10° WNW 20:11:40 40° SW 20:12:32 35° S
STARLINK-1246 4.2 20:08:16 10° WSW 20:12:15 54° NNW 20:14:18 26° NE
MOS 1 Rocket 3.5 20:08:04 10° NNE 20:13:18 77° ESE 20:18:41 10° S
STARLINK-1097 3.7 20:09:45 10° WNW 20:13:53 65° NNE 20:14:29 56° ENE
STARLINK-1091 4.5 20:12:33 10° WNW 20:16:19 37° SW 20:17:02 34° SSW
Cosmos 292 Rocket 3.6 20:13:11 10° NNW 20:18:00 79° ENE 20:19:07 53° SE
Cosmos 1943 3.9 20:19:28 34° ENE 20:19:28 34° ENE 20:23:26 10° NE
STARLINK-1099 3.6 20:14:44 10° WNW 20:18:53 70° NNE 20:19:17 64° ENE
Cosmos 1943 Rocket 2.1 20:15:21 10° NNW 20:20:55 90° WSW 20:22:51 43° SSE
STARLINK-1224 4.4 20:17:12 10° W 20:21:07 49° NNW 20:22:45 30° NE
Cosmos 2074 Rocket 3.9 20:17:16 10° N 20:23:35 84° E 20:26:45 32° SSE
STARLINK-1104 3.5 20:19:44 10° WNW 20:23:53 74° NNE 20:24:04 72° NE
STARLINK-1225 4.4 20:21:56 10° W 20:25:51 47° NNW 20:27:17 32° NNE
STARLINK-1144 3.5 20:24:41 10° WNW 20:28:50 79° NNE 20:28:50 79° NNE
Cosmos 1437 4.5 20:27:04 10° N 20:28:32 26° N 20:28:32 26° N
Cosmos 1953 2.7 20:29:29 36° SW 20:30:54 62° WNW 20:34:51 10° N
Meteor 2-10 4.0 20:28:33 27° S 20:31:32 86° E 20:37:05 10° NNE
SPOT 1/Viking Rocket 4.0 20:32:06 44° ENE 20:32:10 44° ENE 20:37:07 10° N
NOSS 3-3 (A) 3.8 20:26:39 10° SSW 20:32:21 60° ESE 20:38:46 10° NE
NOSS 3-3 (C) 3.8 20:26:46 10° SSW 20:32:27 59° ESE 20:38:51 10° NE
Spot 2 Rocket 3.4 20:33:06 62° ESE 20:33:43 68° ENE 20:38:49 10° N
STARLINK-1103 3.6 20:29:39 10° WNW 20:33:37 79° NNW 20:33:37 79° NNW
SL-16 R/B 3.5 20:29:30 10° SW 20:34:50 41° NW 20:40:12 10° NNE
Cosmos 2084 Rocket 3.4 20:30:43 10° NW 20:35:12 83° SW 20:35:19 82° SSW
Cosmos 1610 Rocket 4.4 20:31:23 10° N 20:37:37 71° E 20:39:03 53° SE
STARLINK-1101 3.7 20:34:39 10° WNW 20:38:25 72° WNW 20:38:25 72° WNW
IGS 5A 4.4 20:42:15 39° NNE 20:42:15 39° NNE 20:45:11 10° N
Aureole 2 Rocket 3.6 20:40:10 10° NNW 20:42:44 42° NW 20:42:44 42° NW
STARLINK-1102 3.9 20:39:37 10° WNW 20:43:11 64° WNW 20:43:11 64° WNW
Terra 3.3 20:49:36 25° NE 20:49:36 25° NE 20:52:26 10° N
STARLINK-1111 4.2 20:44:36 10° WNW 20:47:58 56° WNW 20:47:58 56° WNW
STARLINK-1073 4.4 20:49:35 10° WNW 20:52:45 49° WNW 20:52:45 49° WNW
Cosmos 2341 Rocket 4.2 20:47:32 10° N 20:53:46 53° ENE 20:53:51 53° E
Cosmos 1726 Rocket 4.4 20:55:09 44° N 20:55:09 44° N 20:58:13 10° N
Cosmos 1703 4.2 20:50:20 10° NNW 20:53:09 45° NNW 20:53:09 45° NNW
ATLAS 2AS CENTAUR R/B 3.1 20:48:37 10° NW 20:56:09 54° NE 20:57:42 46° E
Meteor 1-16 Rocket 4.3 20:54:16 39° SSW 20:56:14 70° WNW 21:01:42 10° N
Cosmos 1603 3.6 20:53:26 31° SSW 20:56:16 87° WNW 21:01:56 10° NNE
Cosmos 1825 Rocket 4.2 20:53:29 10° NNW 20:57:48 52° W 20:57:49 52° W
USA 234 3.7 20:52:40 10° NE 20:59:04 59° NNW 21:05:28 10° WSW
MetOp-B 4.4 21:01:14 55° SW 21:02:03 62° WSW 21:07:23 10° NNW
Aureole 1 Rocket 4.3 21:07:14 63° ESE 21:07:23 63° ESE 21:14:03 10° NNE
CZ-2C R/B 3.9 21:03:46 10° N 21:08:32 38° WNW 21:13:17 10° SW
COSMOS 2455 3.8 21:05:36 10° NNW 21:11:04 34° NE 21:11:09 34° NE
Meteor 1-11 4.2 21:06:08 10° NNW 21:11:57 79° W 21:12:06 78° WSW
Cosmos 1953 Rocket 4.5 21:09:07 10° NNW 21:12:43 47° WNW 21:12:43 47° WNW
Cosmos 1295 Rocket 4.4 21:10:05 10° N 21:16:22 82° W 21:16:48 77° SSW
Cosmos 2218 Rocket 4.5 21:16:26 10° N 21:21:26 48° NE 21:21:26 48° NE
Cosmos 1656 Rocket 3.8 21:17:30 10° NNW 21:22:37 71° NW 21:22:37 71° NW
ISS -0.6 21:20:40 10° WNW 21:21:09 13° WNW 21:21:09 13° WNW
ERS-1 Rocket 3.6 21:28:47 53° NNW 21:28:47 53° NNW 21:32:38 10° NNW
Resurs 01 Rocket 4.0 21:30:38 16° WSW 21:31:31 17° W 21:34:22 10° NW
Cosmos 2181 Rocket 4.4 21:33:10 51° NE 21:33:10 51° NE 21:37:53 10° NNE
SPOT 5 4.2 21:35:19 32° NNW 21:35:19 32° NNW 21:37:41 10° NNW
Cosmos 2369 Rocket 3.6 21:34:30 10° NW 21:39:22 30° WSW 21:39:39 29° WSW
SL-8 Rocket 4.3 21:51:18 10° NNW 21:56:35 62° NW 21:56:35 62° NW
Cosmos 1943 4.5 22:01:06 34° W 22:02:16 37° NW 22:07:34 10° NNE
Cosmos 1943 Rocket 4.5 22:01:10 10° WNW 22:03:49 14° W 22:04:25 13° WSW
Mayak 1.8 22:06:54 10° NNE 22:06:55 10° NNE 22:06:55 10° NNE
NOSS 3-4 (A) 4.1 22:07:31 10° NW 22:13:24 61° WNW 22:13:24 61° WNW
NOSS 3-4 (C) 4.1 22:07:37 10° NW 22:13:29 62° WNW 22:13:29 62° WNW
Terra 4.1 22:28:30 21° NW 22:28:30 21° NW 22:30:24 10° NNW
ATLAS 2AS CENTAUR R/B 3.9 22:40:03 10° NW 22:45:08 36° W 22:45:08 36° W
Cosmos 1980 Rocket 4.3 22:48:05 10° N 22:50:55 21° NNE 22:50:55 21° NNE
COSMOS 2455 4.5 22:51:25 10° NW 22:54:18 28° NW 22:54:18 28° NW
